Weather History for KUCP - January, 2013

Change the Weather History Date:

Monday, January 21, 2013

  Actual Average (KYNG) Record (KYNG)
Temperature  
Mean Temperature 16 °F 26 °F  
Max Temperature 21 °F 32 °F 59 °F (1959)
Min Temperature 10 °F 19 °F -20 °F (1985)
Degree Days  
Heating Degree Days 50 39  
Month to date heating degree days 825  
Since 1 July heating degree days 3231  
Cooling Degree Days 0 0  
Month to date cooling degree days 0  
Year to date cooling degree days 0  
Moisture  
Dew Point 11 °F    
Average Humidity 74    
Maximum Humidity 86    
Minimum Humidity 57    
Precipitation  
Precipitation 0.00 in 0.08 in 2.65 in (1959)
Month to date precipitation 1.79  
Year to date precipitation 1.79  
Snow  
Snow 0.00 in 0.60 in - ()
Month to date snowfall 11.4  
Since 1 July snowfall 30.8  
Snow Depth -    
Sea Level Pressure  
Sea Level Pressure 30.01 in    
Wind  
Wind Speed 9 mph (WSW)    
Max Wind Speed 18 mph    
Max Gust Speed -    
Visibility 6 miles    
Events Fog , Snow    
T = Trace of Precipitation, MM = Missing Value Source: NWS Daily Summary

Daily Weather History Graph

Daily Weather History Graph

Search for Another Location

Airport or City:

Trip Planner

Search our weather history database for the weather conditions in past years. The results will help you decide how hot, cold, wet, or windy it might be!

Date:

Astronomy

Jan. 21, 2013 Rise Set
Actual Time 7:41 AM EST 5:25 PM EST
Civil Twilight 7:11 AM EST 5:55 PM EST
Nautical Twilight 6:37 AM EST 6:28 PM EST
Astronomical Twilight 6:04 AM EST 7:01 PM EST
Moon 1:04 PM EST (1/21) 3:08 AM EST (1/21)
Length of Visible Light 10h 44m
Length of Day
9h 44m
Waxing Gibbous, 75% of the Moon is Illuminated
Jan 21
Waxing Gibbous
Jan 26
Full
Feb 3
Last Quarter
Feb 10
New
Feb 17
First Quarter

Hourly Weather History & Observations

Time (EST) Temp. Windchill Dew Point Humidity Pressure Visibility Wind Dir Wind Speed Gust Speed Precip Events Conditions
12:56 AM 21.0 °F 12.4 °F 8.1 °F 57% 30.19 in 10.0 mi WNW 6.9 mph - 0.00 in   Mostly Cloudy
1:56 AM 20.1 °F 10.3 °F 8.1 °F 60% 30.18 in 10.0 mi West 8.1 mph - N/A   Mostly Cloudy
2:56 AM 19.0 °F 12.3 °F 8.1 °F 62% 30.17 in 10.0 mi West 4.6 mph - N/A   Scattered Clouds
3:56 AM 19.0 °F 8.2 °F 7.2 °F 60% 30.15 in 10.0 mi WSW 9.2 mph - N/A   Scattered Clouds
4:56 AM 19.0 °F 9.0 °F 7.2 °F 60% 30.14 in 10.0 mi West 8.1 mph - N/A   Mostly Cloudy
5:56 AM 19.0 °F 8.2 °F 7.2 °F 60% 30.13 in 10.0 mi West 9.2 mph - N/A   Mostly Cloudy
6:56 AM 19.0 °F 11.1 °F 9.1 °F 65% 30.13 in 10.0 mi WSW 5.8 mph - N/A   Scattered Clouds
7:56 AM 18.1 °F 7.9 °F 8.1 °F 65% 30.12 in 10.0 mi WSW 8.1 mph - N/A   Overcast
8:56 AM 19.0 °F 10.0 °F 10.0 °F 68% 30.10 in 10.0 mi WSW 6.9 mph - 0.00 in Snow Light Snow
9:56 AM 19.0 °F 12.3 °F 11.1 °F 71% 30.10 in 8.0 mi Variable 4.6 mph - 0.00 in Snow Light Snow
10:35 AM 19.4 °F 11.5 °F 12.2 °F 74% 29.99 in 4.0 mi SW 5.8 mph - 0.00 in Snow Light Snow
10:56 AM 19.0 °F 11.1 °F 13.1 °F 78% 30.08 in 5.0 mi Variable 5.8 mph - 0.00 in Snow Light Snow
11:22 AM 19.4 °F 11.5 °F 12.2 °F 74% 29.97 in 5.0 mi WSW 5.8 mph - 0.00 in Snow Light Snow
11:56 AM 20.1 °F 12.3 °F 13.1 °F 74% 30.04 in 3.0 mi WSW 5.8 mph - 0.00 in Snow Light Snow
12:23 PM 19.4 °F 8.6 °F 12.2 °F 74% 29.93 in 8.0 mi WSW 9.2 mph - 0.00 in   Overcast
12:56 PM 20.1 °F 10.3 °F 13.1 °F 74% 30.01 in 9.0 mi WSW 8.1 mph - 0.00 in Snow Light Snow
1:24 PM 19.4 °F 7.9 °F 14.0 °F 80% 29.91 in 2.5 mi WSW 10.4 mph - 0.00 in Snow Light Snow
1:29 PM 19.4 °F 9.5 °F 14.0 °F 80% 29.90 in 1.2 mi West 8.1 mph - 0.00 in Snow Light Snow
1:33 PM 19.4 °F 9.5 °F 15.8 °F 86% 29.90 in 1.0 mi WSW 8.1 mph - 0.00 in Snow Light Snow
1:35 PM 19.4 °F 10.4 °F 15.8 °F 86% 29.90 in 0.8 mi West 6.9 mph - 0.00 in Snow Light Snow
1:39 PM 21.2 °F 10.9 °F 15.8 °F 80% 29.90 in 1.0 mi WSW 9.2 mph - 0.00 in Snow Light Snow
1:41 PM 21.2 °F 12.6 °F 15.8 °F 80% 29.90 in 1.5 mi West 6.9 mph - 0.00 in Snow Light Snow
1:44 PM 19.4 °F 10.4 °F 15.8 °F 86% 29.90 in 3.0 mi West 6.9 mph - 0.00 in Snow Light Snow
1:56 PM 21.0 °F 9.3 °F 15.1 °F 78% 29.99 in 8.0 mi West 11.5 mph - 0.00 in Snow Light Snow
2:03 PM 21.2 °F 9.5 °F 15.8 °F 80% 29.90 in 8.0 mi West 11.5 mph - 0.00 in Snow Light Snow
2:28 PM 21.2 °F 7.8 °F 12.2 °F 68% 29.91 in 3.0 mi WSW 15.0 mph - 0.00 in Snow Light Snow
2:32 PM 19.4 °F 4.5 °F 12.2 °F 74% 29.91 in 1.8 mi WSW 17.3 mph - 0.00 in Snow Light Snow
2:37 PM 19.4 °F 7.2 °F 12.2 °F 74% 29.91 in 2.0 mi WSW 11.5 mph - 0.00 in Snow Light Snow
2:45 PM 21.2 °F 8.3 °F 14.0 °F 74% 29.91 in 10.0 mi WSW 13.8 mph - 0.00 in   Mostly Cloudy
2:56 PM 20.1 °F 5.4 °F 14.0 °F 77% 30.01 in 0.5 mi West 17.3 mph - 0.00 in Snow Snow
2:59 PM 19.4 °F 6.0 °F 14.0 °F 80% 29.92 in 0.2 mi West 13.8 mph - 0.00 in Snow Heavy Snow
3:05 PM 19.4 °F 7.2 °F 15.8 °F 86% 29.92 in 0.5 mi WSW 11.5 mph - 0.00 in Fog , Snow Light Snow
3:09 PM 19.4 °F 7.9 °F 15.8 °F 86% 29.92 in 1.0 mi West 10.4 mph - 0.00 in Snow Light Snow
3:11 PM 19.4 °F 6.6 °F 14.0 °F 80% 29.92 in 2.0 mi West 12.7 mph - 0.00 in Snow Light Snow
3:18 PM 19.4 °F 6.0 °F 12.2 °F 74% 29.92 in 3.0 mi West 13.8 mph - 0.00 in Snow Light Snow
3:25 PM 17.6 °F 6.4 °F 12.2 °F 79% 29.93 in 2.0 mi West 9.2 mph - 0.00 in Snow Light Snow
3:28 PM 17.6 °F 5.0 °F 12.2 °F 79% 29.93 in 1.8 mi West 11.5 mph - 0.00 in Snow Light Snow
3:38 PM 17.6 °F 5.0 °F 14.0 °F 86% 29.93 in 1.0 mi West 11.5 mph - 0.00 in Snow Light Snow
3:45 PM 17.6 °F 5.7 °F 14.0 °F 86% 29.93 in 0.8 mi West 10.4 mph - 0.00 in Snow Light Snow
3:56 PM 19.0 °F 6.8 °F 14.0 °F 81% 30.04 in 1.2 mi West 11.5 mph - 0.00 in Snow Light Snow
3:58 PM 19.4 °F 6.6 °F 14.0 °F 80% 29.94 in 2.0 mi West 12.7 mph - 0.00 in Snow Light Snow
4:05 PM 17.6 °F 3.7 °F 12.2 °F 79% 29.94 in 10.0 mi WSW 13.8 mph - 0.00 in Snow Light Snow
4:56 PM 18.1 °F 4.4 °F 6.1 °F 59% 30.05 in 10.0 mi WSW 13.8 mph - 0.00 in   Scattered Clouds
5:56 PM 15.1 °F 1.1 °F 6.1 °F 68% 30.08 in 10.0 mi West 12.7 mph - 0.00 in   Scattered Clouds
6:05 PM 15.8 °F 3.4 °F 8.6 °F 73% 29.98 in 5.0 mi West 10.4 mph - 0.00 in Snow Light Snow
6:12 PM 15.8 °F 0.3 °F 6.8 °F 68% 29.99 in 7.0 mi WSW 16.1 mph - 0.00 in Snow Light Snow
6:38 PM 14.0 °F -0.2 °F 8.6 °F 79% 30.00 in 1.8 mi West 12.7 mph - 0.00 in Snow Light Snow
6:41 PM 14.0 °F -0.8 °F 8.6 °F 79% 29.99 in 1.2 mi WSW 13.8 mph - 0.00 in Snow Light Snow
6:48 PM 12.2 °F -1.8 °F 8.6 °F 85% 30.00 in 2.0 mi West 11.5 mph - 0.00 in Snow Light Snow
6:56 PM 13.1 °F -0.7 °F 6.1 °F 74% 30.10 in 10.0 mi WSW 11.5 mph - 0.00 in   Scattered Clouds
7:56 PM 12.0 °F -3.4 °F 1.0 °F 61% 30.11 in 10.0 mi WSW 13.8 mph - N/A   Clear
8:56 PM 11.1 °F -3.2 °F 1.0 °F 64% 30.12 in 10.0 mi WSW 11.5 mph - N/A   Clear
9:56 PM 10.0 °F -5.2 °F 2.1 °F 70% 30.12 in 10.0 mi WSW 12.7 mph - N/A   Clear
10:56 PM 10.0 °F -5.2 °F 1.0 °F 67% 30.13 in 10.0 mi WSW 12.7 mph - N/A   Clear
11:45 PM 10.4 °F -4.8 °F 1.4 °F 67% 30.03 in 10.0 mi West 12.7 mph - N/A   Mostly Cloudy
11:56 PM 10.0 °F -8.1 °F 1.0 °F 67% 30.14 in 10.0 mi West 18.4 mph - 0.00 in Snow Light Snow